Content
SEND FEEDBACK

Daily
Averages
Monthly
Summary
Mexico

LEONA VICARIO, QUINTANA ROO


Home > North America > Mexico > Quintana Roo
Elevation: 26 feet     Latitude: 20 59N     Longitude: 087 12W

WEATHER
 
SELECT A DAY
Number of Records: 166,596;   Date Range: 1/1/95 - 10/30/14
 
SHARE

PRINT THIS DATA

[ ← Previous Day ]
WEATHER ALMANAC - JANUARY 28, 2013
[ Next Day → ]
[ °C ]   °F
Weather ElementAverageHighLow
Temperature78.7 °F82.4 °F (9:43 am)75.2 °F (1:44 am)
Dewpoint71.6 °F73.4 °F (8:42 pm)69.8 °F (1:44 am)
Humidity79.2 %89 % (2:46 am)66 % (10:53 am)
Barometer30.11 in30.16 in (9:43 am)30.07 in (2:49 pm)
Wind Speed9.7 mph16.1 mph (10:53 am)
Weather ElementAverage
Visibility6.8 mi
Wind DirectionESE (110.4 °)

Weather ElementTotal
Precipitation---
Cooling Degree Days13.8 (Base 65)
Growing Degree Days28.8 (Base 50)
Averaged from 23 records on January 28, 2013
WEATHER CONDITIONS BREAKOUT
WIND DIRECTION BREAKOUT
WEATHER BY HOUR - JANUARY 28, 2013
[ °C ]   °F
Local TimeTemperatureDewpointHumidityBarometerVisibilityWind DirectionWind SpeedGust SpeedPrecipitationEventsConditions
1:44 AM75.2 °F69.8 °F83 %30.10 in6.0 miEast (90°)5.8 mphClear
2:46 AM75.2 °F71.6 °F89 %30.08 in6.0 miESE (110°)5.8 mphClear
3:45 AM75.2 °F71.6 °F89 %30.09 in6.0 miEast (80°)5.8 mphClear
4:44 AM75.2 °F71.6 °F89 %30.10 in6.0 miEast (90°)8.1 mphPartly Cloudy
5:43 AM77.0 °F71.6 °F83 %30.10 in6.0 miEast (90°)5.8 mphScattered Clouds
6:42 AM77.0 °F69.8 °F78 %30.13 in7.0 miEast (100°)6.9 mphScattered Clouds
7:43 AM78.8 °F71.6 °F78 %30.14 in7.0 miEast (100°)9.2 mphScattered Clouds
8:47 AM80.6 °F69.8 °F70 %30.15 in7.0 miESE (120°)13.8 mphScattered Clouds
9:43 AM82.4 °F71.6 °F70 %30.16 in7.0 miESE (110°)12.7 mphScattered Clouds
10:53 AM82.4 °F69.8 °F66 %30.16 in7.0 miESE (110°)16.1 mphScattered Clouds
11:43 AM82.4 °F71.6 °F70 %30.14 in7.0 miSE (130°)13.8 mphMostly Cloudy
12:44 PM82.4 °F71.6 °F70 %30.10 in7.0 miSE (140°)13.8 mphScattered Clouds
1:42 PM80.6 °F71.6 °F74 %30.09 in7.0 miSE (130°)13.8 mphMostly Cloudy
2:49 PM82.4 °F71.6 °F70 %30.07 in7.0 miSE (140°)15.0 mphMostly Cloudy
3:44 PM80.6 °F71.6 °F74 %30.08 in7.0 miESE (120°)11.5 mphMostly Cloudy
4:42 PM80.6 °F71.6 °F74 %30.08 in7.0 miESE (120°)11.5 mphMostly Cloudy
5:46 PM78.8 °F71.6 °F78 %30.09 in7.0 miESE (120°)8.1 mphScattered Clouds
6:40 PM77.0 °F71.6 °F83 %30.09 in7.0 miESE (120°)9.2 mphScattered Clouds
7:44 PM78.8 °F71.6 °F78 %30.10 in7.0 miESE (110°)6.9 mphMostly Cloudy
8:42 PM77.0 °F73.4 °F89 %30.11 in7.0 miESE (110°)8.1 mphScattered Clouds
9:46 PM77.0 °F73.4 °F89 %30.11 in7.0 miEast (90°)5.8 mphMostly Cloudy
10:45 PM77.0 °F73.4 °F89 %30.10 in7.0 miESE (110°)6.9 mphScattered Clouds
11:45 PM77.0 °F73.4 °F89 %30.09 in7.0 miEast (100°)9.2 mphScattered Clouds
Hourly data recorded from MMUN, located miles away from Leona Vicario, Quintana Roo







STORIES FROM OUR PARTNERS